CDT,Max TemperatureF,Mean TemperatureF,Min TemperatureF,Max Dew PointF,MeanDew PointF,Min DewpointF,Max Humidity, Mean Humidity, Min Humidity, Max Sea Level PressureIn, Mean Sea Level PressureIn, Min Sea Level PressureIn, Max VisibilityMiles, Mean VisibilityMiles, Min VisibilityMiles, Max Wind SpeedMPH, Mean Wind SpeedMPH, Max Gust SpeedMPH,PrecipitationIn, CloudCover, Events, WindDirDegrees
2010-10-1,82,62,42,46,42,39,85,53,23,30.22,30.15,30.07,10,10,10,13,4,16,0.00,0,,246
2010-10-2,65,51,36,46,38,31,86,58,28,30.43,30.34,30.17,10,10,10,21,11,26,0.00,0,,38
2010-10-3,68,52,36,37,34,32,86,55,29,30.40,30.32,30.21,10,10,10,17,7,25,0.00,1,,157
2010-10-4,77,61,44,43,38,33,68,47,31,30.24,30.17,30.09,10,10,10,21,11,31,0.00,0,,162
2010-10-5,83,68,53,47,42,38,59,44,26,30.18,30.14,30.08,10,10,10,18,11,29,0.00,0,,169
2010-10-6,84,65,46,52,48,42,81,56,34,30.23,30.18,30.14,10,10,5,17,6,20,0.00,0,,59
2010-10-7,86,67,47,52,48,41,93,58,30,30.24,30.14,30.02,10,10,6,14,5,23,0.00,0,,105
2010-10-8,92,74,55,49,46,42,72,42,19,30.02,29.93,29.81,10,10,6,28,9,59,T,1,,201
2010-10-9,78,62,46,54,44,38,93,61,24,30.02,29.98,29.94,10,10,10,21,6,29,0.01,0,,294
2010-10-10,72,60,47,55,48,40,88,72,40,30.00,29.93,29.86,10,9,5,14,5,,0.06,5,Rain,268
2010-10-11,67,58,49,54,51,45,100,85,54,29.98,29.91,29.85,10,9,4,17,9,25,0.10,6,Rain,346
2010-10-12,73,59,45,53,46,39,83,66,39,30.35,30.15,29.99,10,10,7,24,11,33,0.04,1,Rain,337
2010-10-13,70,55,39,38,33,28,83,56,21,30.47,30.39,30.33,10,9,3,10,6,,0.00,0,,312
2010-10-14,83,61,39,43,35,27,80,52,13,30.33,30.20,30.09,10,8,2,13,4,,0.00,0,,284
2010-10-15,86,61,35,45,38,33,89,50,17,30.15,30.05,29.93,10,10,10,16,6,22,0.00,0,,177
2010-10-16,76,59,42,45,39,31,86,48,23,30.16,30.04,29.91,10,10,10,21,11,29,0.00,0,,11
2010-10-17,72,55,38,41,35,28,68,50,31,30.16,30.06,29.94,10,10,9,10,5,,0.00,0,,58
2010-10-18,69,57,45,41,37,35,80,54,30,30.11,30.05,29.95,10,10,10,16,8,24,0.00,0,,5
2010-10-19,73,59,44,42,37,34,86,52,27,30.11,30.04,29.94,10,10,10,13,5,21,T,2,,260
2010-10-20,83,59,35,36,33,30,79,48,16,30.08,30.02,29.94,10,10,10,12,5,16,0.00,0,,287
2010-10-21,76,57,38,47,37,33,79,50,24,30.06,29.97,29.88,10,10,10,15,6,21,0.00,1,,90
2010-10-22,72,62,52,56,53,47,97,78,47,29.88,29.80,29.70,10,10,4,14,6,24,0.07,5,Rain-Thunderstorm,168
2010-10-23,68,58,47,54,50,46,100,87,54,29.70,29.64,29.61,10,6,0,13,4,,0.01,1,Fog,94
2010-10-24,74,60,46,48,43,38,90,64,29,29.78,29.68,29.52,10,10,10,14,7,44,0.00,0,,277
2010-10-25,73,60,47,48,44,31,77,62,43,29.47,29.25,29.03,10,10,10,34,11,48,T,2,Rain,237
2010-10-26,65,52,39,29,23,14,53,35,14,29.69,29.50,29.37,10,10,10,25,19,39,0.00,0,,287
2010-10-27,63,49,34,24,20,16,57,36,17,30.34,29.98,29.69,10,10,10,33,14,48,0.00,0,,289
2010-10-28,65,49,32,27,22,17,70,43,16,30.55,30.45,30.35,10,10,10,10,7,16,0.00,0,,254
2010-10-29,74,56,37,28,25,20,53,38,17,30.34,30.10,29.90,10,10,10,17,6,24,0.00,0,,206
2010-10-30,76,54,31,31,28,26,79,47,19,29.98,29.91,29.84,10,10,9,12,5,18,0.00,0,,37
2010-10-31,60,48,35,35,32,27,76,58,38,30.19,30.04,29.90,10,10,10,18,9,25,0.00,2,,49